Preview of NWS' New Version of Forecast
This preview is not operational and should not be used for support decisions.
Latest weather observations around

Augusta, Augusta State Airport (KAUG)

Using English Units (Switch to International System of Units)
Date/ Time (EDT) Wind (mph) Vis. (mi) Weather Sky Cond. Temp (°F) Rel. Humidity Wind Chill (°F) Heat Index (°F) Pressure Precip. (in)
Air Dwpt 6 hour Altimeter (inHg) Sea level (inHg) 1 hr 3 hr 6 hr
Max Min
May 26 03:53 5 10 Partly Cloudy SCT120 70 55     59%     29.64 29.63      
May 26 02:53 WSW 10 10 Clear CLR 71 55     57%   71 29.64 29.63      
May 26 01:53 W 11 10 Cloudy OVC100 73 55     53%   73 29.64 29.64 0   0
May 26 00:53 W 11 10 Light Rain FEW090 BKN110 74 56     53%   74 29.65 29.64 0    
May 25 23:53 W 10 10 Mostly Clear FEW110 75 55     50%   75 29.65 29.65 0    
May 25 22:53 W 10 10 Clear CLR 76 54     47%   75 29.65 29.65      
May 25 21:53 WSW 13 10 Clear CLR 76 54     47%   75 29.66 29.65      
May 25 20:53 W 13 10 Clear CLR 77 53     43%   76 29.65 29.65      
May 25 19:53 W 13 10 Clear CLR 79 53     41%   78 29.66 29.65      
May 25 18:53 W 13 10 Clear CLR 80 53     39%   80 29.65 29.65      
May 25 17:53 W 13 10 Mostly Clear FEW075 82 53     37%   81 29.64 29.64      
May 25 16:53 W 20 10 Cloudy and Windy OVC080 84 52     33%   82 29.64 29.64      
May 25 15:53 W 9 10 Mostly Cloudy BKN090 85 51     31%   83 29.64 29.64      
May 25 14:53 WSW 16 10 Clear CLR 84 51     32%   82 29.66 29.65      
May 25 13:53 WSW 9 10 Clear CLR 83 52     34%   82 29.67 29.67      
May 25 12:53 W 13 10 Clear CLR 83 50     32%   81 29.69 29.69      
May 25 11:53 W 17 10 Clear CLR 81 49     33%   80 29.71 29.71      
May 25 10:53 W 14 10 Clear CLR 80 49     34%   79 29.73 29.73      
May 25 09:53 W 11 10 Clear CLR 76 50     40%   75 29.74 29.74      
May 25 08:53 WSW 9 10 Clear CLR 69 49     49%     29.76 29.76      
May 25 07:53 SW 8 10 Clear CLR 63 47     56%     29.79 29.79      
May 25 06:53 SW 7 10 Clear CLR 56 47     72%     29.8 29.8      
May 25 05:53 6 10 Clear CLR 50 47     89% 48   29.81 29.81      
May 25 04:53 7 10 Clear CLR 48 47     96% 45   29.81 29.82      
May 25 03:53 SSW 5 10 Clear CLR 48 47     96% 46   29.84 29.84      
May 25 02:53 SSW 6 9 Clear CLR 48 47     96% 45   29.86 29.86      
May 25 01:53 S 6 10 Clear CLR 48 47     96% 45   29.9 29.9      
May 25 00:53 S 3 10 Clear CLR 48 46     93% 47   29.94 29.94      
May 24 23:53 3 10 Clear CLR 49 46     90% 48   29.98 29.98      
May 24 22:53 3 10 Mostly Clear FEW110 49 46     90% 48   30 30      
May 24 21:53 S 6 10 Mostly Clear FEW110 50 45     83% 48   30.02 30.03      
May 24 20:53 7 10 Clear CLR 51 45     79%     30.03 30.03      
May 24 19:53 6 10 Clear CLR 53 45     74%     30.03 30.03      
May 24 18:53 S 9 10 Clear CLR 55 44     66%     30.02 30.03      
May 24 17:53 S 11 10 Clear CLR 57 44     62%     30.02 30.02      
May 24 16:53 SSW 9 10 Clear CLR 59 45     60%     30.03 30.04      
May 24 15:53 SSW 10 10 Clear CLR 61 46     58%     30.04 30.05      
May 24 14:53 S 11 10 Clear CLR 63 47     56%     30.04 30.04      
May 24 13:53 SSE 13 10 Mostly Cloudy BKN050 BKN060 64 45     50%     30.06 30.06      
May 24 12:53 S 8 10 Mostly Clear FEW047 FEW075 63 44     50%     30.08 30.08      
May 24 11:53 5 10 Partly Cloudy FEW042 SCT060 62 45     53%     30.1 30.1      
May 24 10:53 SSE 7 10 Partly Cloudy SCT022 SCT028 57 46     67%     30.11 30.11      
May 24 09:53 S 8 10 Cloudy OVC016 55 47     74%     30.11 30.11      
May 24 09:38 S 7 10 Cloudy OVC015 55 47     74%     30.11        
May 24 08:53 6 10 Cloudy OVC011 52 46     80%     30.12 30.12      
May 24 08:35 5 10 Mostly Cloudy BKN010 BKN017 BKN031 51 46     83%     30.11        
May 24 08:21 6 10 Mostly Cloudy SCT010 BKN017 BKN031 51 45     79%     30.11        
May 24 07:53 SSW 6 10 Cloudy BKN007 OVC017 49 45     86% 46   30.11 30.11      
May 24 06:53 SW 3 10 Cloudy BKN007 BKN022 OVC035 47 45     93% 46   30.09 30.09      
May 24 06:46 Calm 10 Cloudy BKN007 BKN022 OVC035 48 45     89%     30.09        
May 24 06:39 SSE 3 10 Cloudy SCT005 BKN022 OVC036 47 45     93% 46   30.09        
May 24 05:53 3 10 Cloudy BKN005 OVC043 47 45     93% 46   30.06 30.06      
May 24 05:48 Calm 10 Mostly Cloudy BKN005 BKN043 46 45     93%     30.06        
May 24 05:29 S 3 10 Partly Cloudy FEW006 SCT044 46 44     93% 45   30.05        
May 24 04:53 SSE 5 10 Cloudy OVC046 47 44     90% 45   30.04 30.04      
May 24 03:53 SE 5 10 Mostly Cloudy FEW027 BKN050 49 42     77% 47   30.03 30.02      
May 24 02:53 Calm 10 Clear CLR 49 41     74%     30.02 30.02      
May 24 01:53 N 3 10 Clear CLR 51 40     65%     30.02 30.02      
May 24 00:53 NNE 5 10 Clear CLR 53 39     59%     30.02 30.01      
May 23 23:53 E 3 10 Mostly Cloudy BKN095 54 41     61%     30.01 30      
May 23 22:53 NE 5 10 Partly Cloudy SCT090 55 41     59%     30 30      
May 23 21:53 NE 7 10 Clear CLR 57 42     57%     29.99 29.99      
May 23 20:53 NNE 14 10 Clear CLR 59 45     60%     29.97 29.97      
May 23 19:53 NNE 8 10 Clear CLR 62 44     52%     29.94 29.94      
May 23 18:53 NNE 14 10 Clear CLR 65 47     52%     29.92 29.92      
May 23 17:53 N 14 10 Clear CLR 67 49     52%     29.88 29.88      
May 23 16:53   10 Clear CLR 74 44     34%   73 29.85 29.85      
May 23 15:53 NW 16 10 Clear CLR 76 45     33%   75 29.81 29.8      
May 23 15:08 NNW 14 10 Mostly Cloudy FEW070 BKN090 78 49     36%   77 29.78        
May 23 14:53   10 Partly Cloudy FEW070 SCT085 79 48     34%   78 29.78 29.77      
May 23 13:53 SW 8 10 Mostly Cloudy BKN070 78 51     39%   77 29.76 29.76      
May 23 12:53 WNW 7 10 Clear CLR 75 52     45%   74 29.8 29.79      
May 23 11:53 SW 6 10 Clear CLR 71 51     49%   70 29.82 29.81      
May 23 10:53 W 5 10 Clear CLR 69 52     54%     29.83 29.83      
May 23 09:53 Calm 10 Mostly Cloudy BKN031 66 52     61%     29.84 29.84      
May 23 09:37 NW 6 10 Cloudy OVC031 65 52     63%     29.85        
May 23 09:24 7 10 Mostly Cloudy BKN028 66 53     63%     29.85        
May 23 08:53 NNW 5 10 Clear CLR 64 53     67%     29.85 29.85      
May 23 07:53 NNW 7 10 Clear CLR 60 53     78%     29.85 29.85      
May 23 06:53 Calm 10 Clear CLR 56 51     84%     29.85 29.85      
May 23 05:53 Calm 10 Clear CLR 53 50     89%     29.84 29.84      
May 23 04:53 Calm 10 Mostly Cloudy BKN070 53 50     89%     29.84 29.84      
May 23 03:53 SSW 3 10 Cloudy BKN034 OVC065 53 50     89%     29.84 29.84      
May 23 02:53 3 10 Cloudy OVC037 53 50     89%     29.86 29.85      
May 23 01:53 S 5 10 Cloudy OVC047 53 51     93%     29.87 29.87     0
May 23 00:53 S 5 10 Cloudy OVC050 54 51     90%     29.88 29.88      
May 22 23:53 SSW 5 10 Cloudy OVC060 54 52     93%     29.9 29.9      
May 22 22:53 S 7 10 Cloudy OVC060 55 52     89%     29.93 29.93   0  
May 22 21:53 S 7 10 Cloudy BKN065 OVC075 56 53     90%     29.96 29.96 0    
May 22 20:53 SSW 5 8 Light Rain FEW060 BKN075 OVC100 58 52     81%     29.98 29.98 0    
May 22 19:53 7 10 Cloudy OVC095 62 49     62%     29.99 29.99     0
May 22 18:53 SSW 7 10 Cloudy OVC075 63 49     60%     30.01 30.01      
May 22 16:53 WSW 9 10 Cloudy SCT060 BKN090 OVC110 66 47     50%     30.05 30.05      
May 15 12:53 NW 14 9 Light Rain FEW029 BKN034 OVC047 60 56     86%     29.77 29.77 0    
May 15 04:53 S 3 0.25 Fog VV001 47 47     100% 46   29.8 29.8      
May 13 19:53 S 7 10 Clear CLR 52 42     69%     30.09 30.09      
May 13 12:53 SSE 5 10 Clear CLR 64 29     27%     30.16 30.16      
May 12 00:53 Calm 10 Clear CLR 43 24     47%     30.16 30.17      
Jun 11 16:53 SW 11 10 Clear CLR 91        %     29.77 29.77      
Jun 11 15:53 SW 15 10 Clear   90 53     29%   88 29.77 29.76      
Jun 11 12:53   10 Clear CLR 87 58     37%   86 29.8 29.79      
Jun 10 13:53 SW 8 10 Clear CLR 77 48     36%   76 29.92 29.92      
Jun 09 00:53 SSE 6 10 Clear CLR 53 42     66%     29.86 29.86      
Jun 08 11:53 5 10 Clear CLR 80        %     29.97 29.97      
Jun 05 22:53 E 9 10 Clear   51 44     77%     29.99 30      
Jun 05 18:53 E 9 10 Cloudy BKN015 OVC040 51 47     86%     29.99 29.99      
Notice The following observation data may not be complete
Jun 05 18:05   10 Cloudy SCT008 OVC015          %